| time (UTC) | temp F | wind direction | speed knots | gust knots | rain 1hr in | rain 24hr in | rain mn in | humidity % | barometer mb |
| 20260509024149 | 66 | 44 | 8.7 | 14.8 | 0.00 | 0.00 | 0.00 | 45 | 1029.9 |
| 20260509023647 | 66 | 57 | 13.0 | 14.8 | 0.00 | 0.00 | 0.00 | 45 | 1030.0 |
| 20260509023144 | 66 | 34 | 13.9 | 13.9 | 0.00 | 0.00 | 0.00 | 45 | 1030.0 |
| 20260509022640 | 66 | 50 | 9.6 | 13.0 | 0.00 | 0.00 | 0.00 | 46 | 1029.9 |
| 20260509022138 | 66 | 39 | 12.2 | 15.6 | 0.00 | 0.00 | 0.00 | 45 | 1030.2 |
| 20260509021634 | 66 | 66 | 9.6 | 13.0 | 0.00 | 0.00 | 0.00 | 46 | 1030.0 |
| 20260509021131 | 66 | 67 | 11.3 | 15.6 | 0.00 | 0.00 | 0.00 | 46 | 1030.0 |
| 20260509015828 | 64 | 49 | 6.1 | 16.5 | 0.00 | 0.00 | 0.00 | 48 | 1030.3 |
| 20260509015326 | 64 | 49 | 6.1 | 16.5 | 0.00 | 0.00 | 0.00 | 48 | 1030.3 |
| 20260509014822 | 64 | 51 | 8.7 | 14.8 | 0.00 | 0.00 | 0.00 | 49 | 1030.3 |
| 20260509014319 | 64 | 41 | 10.4 | 12.2 | 0.00 | 0.00 | 0.00 | 49 | 1030.2 |
| 20260509013816 | 63 | 50 | 11.3 | 19.1 | 0.00 | 0.00 | 0.00 | 49 | 1030.2 |
| 20260509013312 | 63 | 58 | 13.0 | 14.8 | 0.00 | 0.00 | 0.00 | 49 | 1030.4 |
| 20260509012808 | 63 | 34 | 8.7 | 15.6 | 0.00 | 0.00 | 0.00 | 50 | 1030.3 |
| 20260509012307 | 63 | 41 | 10.4 | 15.6 | 0.00 | 0.00 | 0.00 | 51 | 1030.2 |
| 20260509011802 | 62 | 41 | 8.7 | 15.6 | 0.00 | 0.00 | 0.00 | 51 | 1030.4 |
| 20260509011300 | 62 | 48 | 11.3 | 13.9 | 0.00 | 0.00 | 0.00 | 51 | 1030.5 |
| 20260509010757 | 62 | 54 | 13.0 | 17.4 | 0.00 | 0.00 | 0.00 | 51 | 1030.5 |
| 20260509010254 | 62 | 21 | 9.6 | 16.5 | 0.00 | 0.00 | 0.00 | 52 | 1030.5 |
| 20260509005752 | 62 | 57 | 10.4 | 13.9 | 0.00 | 0.00 | 0.00 | 52 | 1030.5 |
| 20260509005250 | 61 | 78 | 4.3 | 14.8 | 0.00 | 0.00 | 0.00 | 53 | 1030.5 |
| 20260509004749 | 61 | 64 | 6.1 | 15.6 | 0.00 | 0.00 | 0.00 | 53 | 1030.6 |
| 20260509004247 | 61 | 45 | 8.7 | 14.8 | 0.00 | 0.00 | 0.00 | 54 | 1030.4 |
| 20260509003745 | 60 | 32 | 4.3 | 13.0 | 0.00 | 0.00 | 0.00 | 54 | 1030.4 |
| 20260509003242 | 60 | 58 | 5.2 | 5.2 | 0.00 | 0.00 | 0.00 | 55 | 1030.4 |
| 20260509002739 | 60 | 86 | 4.3 | 8.7 | 0.00 | 0.00 | 0.00 | 56 | 1030.4 |
| 20260509002236 | 59 | 92 | 4.3 | 7.0 | 0.00 | 0.00 | 0.00 | 56 | 1030.3 |
| 20260509001734 | 59 | 81 | 2.6 | 7.0 | 0.00 | 0.00 | 0.00 | 57 | 1030.3 |
| 20260509001230 | 59 | 71 | 4.3 | 6.1 | 0.00 | 0.00 | 0.00 | 57 | 1030.4 |
| 20260509000728 | 58 | 74 | 5.2 | 5.2 | 0.00 | 0.00 | 0.00 | 57 | 1030.4 |
| 20260509000226 | 58 | 78 | 3.5 | 5.2 | 0.00 | 0.00 | 0.00 | 58 | 1030.3 |
| 20260508235722 | 57 | 28 | 3.5 | 4.3 | 0.00 | 0.00 | 0.00 | 59 | 1030.4 |
| 20260508235218 | 57 | 56 | 3.5 | 5.2 | 0.00 | 0.00 | 0.00 | 60 | 1030.2 |
| 20260508234716 | 56 | 77 | 4.3 | 6.1 | 0.00 | 0.00 | 0.00 | 60 | 1030.2 |
| 20260508234212 | 56 | 88 | 4.3 | 5.2 | 0.00 | 0.00 | 0.00 | 60 | 1030.2 |
| 20260508233711 | 56 | 70 | 2.6 | 4.3 | 0.00 | 0.00 | 0.00 | 61 | 1030.2 |
| 20260508233209 | 55 | 104 | 3.5 | 7.0 | 0.00 | 0.00 | 0.00 | 62 | 1030.2 |
| 20260508232706 | 55 | 91 | 7.0 | 7.0 | 0.00 | 0.00 | 0.00 | 63 | 1030.2 |
| 20260508232202 | 54 | 94 | 6.1 | 7.0 | 0.00 | 0.00 | 0.00 | 64 | 1030.1 |
| 20260508231700 | 53 | 92 | 3.5 | 5.2 | 0.00 | 0.00 | 0.00 | 65 | 1030.1 |
| 20260508231157 | 53 | 70 | 4.3 | 7.0 | 0.00 | 0.00 | 0.00 | 66 | 1030.2 |
| 20260508230654 | 53 | 94 | 3.5 | 5.2 | 0.00 | 0.00 | 0.00 | 66 | 1030.1 |
| 20260508230150 | 53 | 71 | 4.3 | 5.2 | 0.00 | 0.00 | 0.00 | 66 | 1030.0 |
| 20260508225648 | 52 | 95 | 3.5 | 5.2 | 0.00 | 0.00 | 0.00 | 67 | 1030.0 |
| 20260508225144 | 52 | 101 | 3.5 | 4.3 | 0.00 | 0.00 | 0.00 | 67 | 1029.9 |
| 20260508224642 | 52 | 82 | 3.5 | 6.1 | 0.00 | 0.00 | 0.00 | 67 | 1030.0 |
| 20260508224139 | 52 | 106 | 5.2 | 7.0 | 0.00 | 0.00 | 0.00 | 67 | 1029.9 |
| 20260508223637 | 52 | 98 | 7.0 | 7.0 | 0.00 | 0.00 | 0.00 | 67 | 1029.8 |
| 20260508223134 | 52 | 100 | 4.3 | 7.0 | 0.00 | 0.00 | 0.00 | 67 | 1029.9 |
| 20260508222631 | 52 | 104 | 6.1 | 7.0 | 0.00 | 0.00 | 0.00 | 67 | 1029.7 |
| 20260508222128 | 52 | 99 | 3.5 | 7.0 | 0.00 | 0.00 | 0.00 | 67 | 1029.8 |
| 20260508221624 | 52 | 97 | 4.3 | 7.0 | 0.00 | 0.00 | 0.00 | 67 | 1029.9 |
| 20260508221120 | 52 | 106 | 5.2 | 6.1 | 0.00 | 0.00 | 0.00 | 68 | 1029.6 |
| 20260508220617 | 52 | 101 | 4.3 | 7.0 | 0.00 | 0.00 | 0.00 | 67 | 1029.8 |
| 20260508220114 | 52 | 93 | 5.2 | 7.0 | 0.00 | 0.00 | 0.00 | 67 | 1029.7 |
| 20260508215610 | 52 | 102 | 4.3 | 7.8 | 0.00 | 0.00 | 0.00 | 67 | 1029.7 |
| 20260508215107 | 52 | 103 | 4.3 | 5.2 | 0.00 | 0.00 | 0.00 | 67 | 1029.7 |
| 20260508214604 | 52 | 106 | 3.5 | 5.2 | 0.00 | 0.00 | 0.00 | 67 | 1029.8 |
| 20260508214101 | 52 | 104 | 4.3 | 4.3 | 0.00 | 0.00 | 0.00 | 66 | 1029.7 |
| 20260508213558 | 53 | 116 | 3.5 | 4.3 | 0.00 | 0.00 | 0.00 | 66 | 1029.7 |
| 20260508213054 | 52 | 130 | 2.6 | 3.5 | 0.00 | 0.00 | 0.00 | 66 | 1029.5 |
| 20260508212550 | 53 | 110 | 2.6 | 3.5 | 0.00 | 0.00 | 0.00 | 65 | 1029.6 |
| 20260508212047 | 53 | 97 | 2.6 | 4.3 | 0.00 | 0.00 | 0.00 | 64 | 1029.7 |
| 20260508211542 | 53 | 102 | 3.5 | 6.1 | 0.00 | 0.00 | 0.00 | 64 | 1029.5 |
| 20260508211039 | 53 | 79 | 5.2 | 6.1 | 0.00 | 0.00 | 0.00 | 63 | 1029.6 |
| 20260508210535 | 54 | 84 | 4.3 | 5.2 | 0.00 | 0.00 | 0.00 | 63 | 1029.5 |
| 20260508210033 | 53 | 93 | 3.5 | 4.3 | 0.00 | 0.00 | 0.00 | 64 | 1029.5 |
| 20260508205530 | 53 | 106 | 3.5 | 3.5 | 0.00 | 0.00 | 0.00 | 64 | 1029.5 |
| 20260508205026 | 53 | 134 | 0.9 | 1.7 | 0.00 | 0.00 | 0.00 | 65 | 1029.4 |
| 20260508204523 | 53 | 147 | 0.0 | 2.6 | 0.00 | 0.00 | 0.00 | 64 | 1029.2 |
| 20260508204019 | 54 | 175 | 0.9 | 1.7 | 0.00 | 0.00 | 0.00 | 63 | 1029.3 |
| 20260508203515 | 55 | 111 | 2.6 | 3.5 | 0.00 | 0.00 | 0.00 | 61 | 1029.4 |
| 20260508203011 | 55 | 91 | 3.5 | 4.3 | 0.00 | 0.00 | 0.00 | 60 | 1029.2 |
| 20260508202508 | 55 | 89 | 2.6 | 3.5 | 0.00 | 0.00 | 0.00 | 59 | 1029.4 |
| 20260508202005 | 56 | 92 | 2.6 | 3.5 | 0.00 | 0.00 | 0.00 | 59 | 1029.2 |
| 20260508201501 | 56 | 91 | 2.6 | 4.3 | 0.00 | 0.00 | 0.00 | 59 | 1029.3 |
| 20260508200958 | 56 | 93 | 3.5 | 4.3 | 0.00 | 0.00 | 0.00 | 59 | 1029.2 |
| 20260508200456 | 56 | 95 | 2.6 | 4.3 | 0.00 | 0.00 | 0.00 | 59 | 1029.2 |
| 20260508195950 | 56 | 88 | 3.5 | 4.3 | 0.00 | 0.00 | 0.00 | 58 | 1029.1 |
| 20260508195448 | 57 | 95 | 3.5 | 4.3 | 0.00 | 0.00 | 0.00 | 57 | 1029.3 |
| 20260508194944 | 57 | 88 | 4.3 | 4.3 | 0.00 | 0.00 | 0.00 | 57 | 1029.1 |
| 20260508194441 | 57 | 97 | 1.7 | 5.2 | 0.00 | 0.00 | 0.00 | 56 | 1029.2 |
| 20260508193938 | 58 | 73 | 5.2 | 5.2 | 0.00 | 0.00 | 0.00 | 55 | 1028.9 |
| 20260508193435 | 58 | 53 | 4.3 | 7.8 | 0.00 | 0.00 | 0.00 | 54 | 1029.0 |
| 20260508192931 | 58 | 76 | 5.2 | 6.1 | 0.00 | 0.00 | 0.00 | 54 | 1029.0 |
| 20260508192428 | 58 | 77 | 7.8 | 8.7 | 0.00 | 0.00 | 0.00 | 54 | 1029.0 |
| 20260508191925 | 59 | 59 | 5.2 | 7.8 | 0.00 | 0.00 | 0.00 | 54 | 1028.9 |
| 20260508191422 | 59 | 88 | 4.3 | 8.7 | 0.00 | 0.00 | 0.00 | 54 | 1028.9 |
| 20260508190919 | 59 | 58 | 6.1 | 11.3 | 0.00 | 0.00 | 0.00 | 53 | 1029.0 |
| 20260508190416 | 59 | 52 | 5.2 | 9.6 | 0.00 | 0.00 | 0.00 | 53 | 1028.8 |
| 20260508185912 | 59 | 81 | 7.8 | 7.8 | 0.00 | 0.00 | 0.00 | 53 | 1029.0 |
| 20260508185410 | 59 | 75 | 4.3 | 9.6 | 0.00 | 0.00 | 0.00 | 53 | 1029.0 |
| 20260508184907 | 59 | 69 | 6.1 | 12.2 | 0.00 | 0.00 | 0.00 | 52 | 1028.9 |
| 20260508184404 | 59 | 83 | 7.0 | 9.6 | 0.00 | 0.00 | 0.00 | 53 | 1028.8 |
| 20260508183901 | 59 | 69 | 7.8 | 11.3 | 0.00 | 0.00 | 0.00 | 53 | 1028.8 |
| 20260508183358 | 59 | 79 | 7.0 | 11.3 | 0.00 | 0.00 | 0.00 | 53 | 1028.7 |
| 20260508182853 | 59 | 71 | 9.6 | 11.3 | 0.00 | 0.00 | 0.00 | 52 | 1028.9 |
| 20260508182350 | 60 | 77 | 8.7 | 11.3 | 0.00 | 0.00 | 0.00 | 52 | 1028.7 |
| 20260508181846 | 60 | 78 | 6.1 | 12.2 | 0.00 | 0.00 | 0.00 | 52 | 1028.8 |
| 20260508181343 | 60 | 94 | 13.9 | 14.8 | 0.00 | 0.00 | 0.00 | 52 | 1028.9 |
| 20260508180840 | 60 | 71 | 6.1 | 13.9 | 0.00 | 0.00 | 0.00 | 52 | 1028.8 |
| 20260508180337 | 60 | 74 | 9.6 | 13.0 | 0.00 | 0.00 | 0.00 | 51 | 1028.7 |
| 20260508175833 | 60 | 61 | 7.0 | 11.3 | 0.00 | 0.00 | 0.00 | 51 | 1029.0 |
| 20260508175329 | 60 | 96 | 5.2 | 13.0 | 0.00 | 0.00 | 0.00 | 51 | 1028.9 |
| 20260508174828 | 60 | 54 | 7.0 | 9.6 | 0.00 | 0.00 | 0.00 | 51 | 1028.9 |
| 20260508174325 | 60 | 75 | 8.7 | 9.6 | 0.00 | 0.00 | 0.00 | 51 | 1028.9 |
| 20260508173821 | 60 | 60 | 7.8 | 11.3 | 0.00 | 0.00 | 0.00 | 50 | 1028.9 |
| 20260508173318 | 61 | 72 | 7.8 | 11.3 | 0.00 | 0.00 | 0.00 | 50 | 1028.9 |
| 20260508172814 | 61 | 59 | 7.8 | 12.2 | 0.00 | 0.00 | 0.00 | 50 | 1028.9 |
| 20260508172311 | 60 | 65 | 7.8 | 10.4 | 0.00 | 0.00 | 0.00 | 50 | 1029.0 |
| 20260508171808 | 61 | 87 | 4.3 | 7.8 | 0.00 | 0.00 | 0.00 | 50 | 1028.9 |
| 20260508171304 | 61 | 59 | 4.3 | 11.3 | 0.00 | 0.00 | 0.00 | 50 | 1028.8 |
| 20260508170801 | 60 | 43 | 6.1 | 7.8 | 0.00 | 0.00 | 0.00 | 50 | 1028.8 |
| 20260508170259 | 60 | 46 | 2.6 | 7.0 | 0.00 | 0.00 | 0.00 | 51 | 1029.1 |
| 20260508165755 | 60 | 60 | 3.5 | 9.6 | 0.00 | 0.00 | 0.00 | 50 | 1028.9 |
| 20260508165253 | 60 | 71 | 6.1 | 7.8 | 0.00 | 0.00 | 0.00 | 50 | 1028.9 |
| 20260508164748 | 60 | 55 | 6.1 | 7.0 | 0.00 | 0.00 | 0.00 | 50 | 1029.0 |
| 20260508164245 | 60 | 92 | 2.6 | 6.1 | 0.00 | 0.00 | 0.00 | 50 | 1028.8 |
| 20260508163743 | 60 | 73 | 5.2 | 7.0 | 0.00 | 0.00 | 0.00 | 50 | 1028.8 |
| 20260508163241 | 60 | 93 | 5.2 | 8.7 | 0.00 | 0.00 | 0.00 | 50 | 1028.8 |
| 20260508162736 | 61 | 79 | 6.1 | 7.0 | 0.00 | 0.00 | 0.00 | 49 | 1028.8 |
| 20260508162234 | 61 | 88 | 5.2 | 8.7 | 0.00 | 0.00 | 0.00 | 48 | 1028.9 |
| 20260508161730 | 61 | 88 | 6.1 | 9.6 | 0.00 | 0.00 | 0.00 | 48 | 1028.8 |
| 20260508161228 | 61 | 81 | 7.8 | 9.6 | 0.00 | 0.00 | 0.00 | 48 | 1028.6 |
| 20260508160726 | 62 | 84 | 5.2 | 11.3 | 0.00 | 0.00 | 0.00 | 47 | 1028.7 |
| 20260508160224 | 62 | 78 | 6.1 | 11.3 | 0.00 | 0.00 | 0.00 | 46 | 1028.7 |
| 20260508155720 | 62 | 86 | 4.3 | 9.6 | 0.00 | 0.00 | 0.00 | 46 | 1028.7 |
| 20260508155217 | 63 | 91 | 4.3 | 11.3 | 0.00 | 0.00 | 0.00 | 45 | 1028.9 |
| 20260508154714 | 63 | 80 | 7.0 | 11.3 | 0.00 | 0.00 | 0.00 | 45 | 1028.8 |
| 20260508154211 | 63 | 72 | 5.2 | 8.7 | 0.00 | 0.00 | 0.00 | 45 | 1029.0 |
| 20260508153708 | 63 | 73 | 6.1 | 7.8 | 0.00 | 0.00 | 0.00 | 45 | 1029.1 |
| 20260508153205 | 63 | 86 | 8.7 | 9.6 | 0.00 | 0.00 | 0.00 | 46 | 1028.7 |
| 20260508152701 | 63 | 70 | 5.2 | 7.8 | 0.00 | 0.00 | 0.00 | 46 | 1028.9 |
| 20260508152157 | 63 | 66 | 6.1 | 10.4 | 0.00 | 0.00 | 0.00 | 46 | 1028.9 |
| 20260508151654 | 62 | 64 | 7.8 | 9.6 | 0.00 | 0.00 | 0.00 | 46 | 1028.7 |
| 20260508151151 | 62 | 73 | 7.0 | 12.2 | 0.00 | 0.00 | 0.00 | 46 | 1028.9 |
| 20260508150647 | 62 | 56 | 4.3 | 7.8 | 0.00 | 0.00 | 0.00 | 47 | 1029.1 |
| 20260508150144 | 62 | 76 | 4.3 | 6.1 | 0.00 | 0.00 | 0.00 | 47 | 1028.9 |
| 20260508145640 | 62 | 66 | 3.5 | 6.1 | 0.00 | 0.00 | 0.00 | 47 | 1028.9 |
| 20260508145136 | 63 | 85 | 5.2 | 8.7 | 0.00 | 0.00 | 0.00 | 46 | 1029.1 |
| 20260508144634 | 63 | 88 | 7.0 | 8.7 | 0.00 | 0.00 | 0.00 | 46 | 1028.9 |
| 20260508144132 | 62 | 62 | 5.2 | 9.6 | 0.00 | 0.00 | 0.00 | 47 | 1029.1 |
| 20260508143629 | 63 | 67 | 5.2 | 7.8 | 0.00 | 0.00 | 0.00 | 47 | 1029.1 |
| 20260508143125 | 63 | 77 | 6.1 | 7.8 | 0.00 | 0.00 | 0.00 | 47 | 1029.0 |
| 20260508142622 | 63 | 65 | 5.2 | 8.7 | 0.00 | 0.00 | 0.00 | 47 | 1029.1 |
| 20260508142119 | 63 | 79 | 7.0 | 7.8 | 0.00 | 0.00 | 0.00 | 47 | 1029.2 |
| 20260508141615 | 63 | 79 | 4.3 | 9.6 | 0.00 | 0.00 | 0.00 | 47 | 1029.1 |
| 20260508141113 | 63 | 92 | 6.1 | 7.8 | 0.00 | 0.00 | 0.00 | 48 | 1029.1 |
| 20260508140610 | 63 | 78 | 4.3 | 7.0 | 0.00 | 0.00 | 0.00 | 49 | 1029.2 |
| 20260508140107 | 63 | 74 | 6.1 | 7.0 | 0.00 | 0.00 | 0.00 | 48 | 1029.2 |
| 20260508135602 | 63 | 81 | 6.1 | 7.8 | 0.00 | 0.00 | 0.00 | 49 | 1029.1 |
| 20260508135059 | 62 | 85 | 4.3 | 7.8 | 0.00 | 0.00 | 0.00 | 50 | 1029.3 |
| 20260508134555 | 62 | 76 | 4.3 | 7.8 | 0.00 | 0.00 | 0.00 | 51 | 1029.1 |
| 20260508134052 | 62 | 82 | 4.3 | 6.1 | 0.00 | 0.00 | 0.00 | 52 | 1029.3 |
| 20260508133549 | 62 | 88 | 4.3 | 7.0 | 0.00 | 0.00 | 0.00 | 51 | 1029.2 |
| 20260508133047 | 62 | 80 | 5.2 | 7.0 | 0.00 | 0.00 | 0.00 | 52 | 1029.2 |
| 20260508132544 | 62 | 93 | 5.2 | 7.8 | 0.00 | 0.00 | 0.00 | 52 | 1029.3 |
| 20260508132041 | 62 | 83 | 5.2 | 6.1 | 0.00 | 0.00 | 0.00 | 53 | 1029.0 |
| 20260508131536 | 62 | 77 | 4.3 | 7.0 | 0.00 | 0.00 | 0.00 | 53 | 1029.2 |
| 20260508131033 | 62 | 81 | 3.5 | 5.2 | 0.00 | 0.00 | 0.00 | 53 | 1029.1 |
| 20260508130530 | 63 | 81 | 4.3 | 5.2 | 0.00 | 0.00 | 0.00 | 52 | 1029.1 |
| 20260508130026 | 63 | 88 | 5.2 | 7.0 | 0.00 | 0.00 | 0.00 | 51 | 1029.2 |
| 20260508125522 | 63 | 86 | 5.2 | 7.0 | 0.00 | 0.00 | 0.00 | 51 | 1029.1 |
| 20260508125020 | 63 | 91 | 3.5 | 6.1 | 0.00 | 0.00 | 0.00 | 52 | 1029.1 |
| 20260508124518 | 63 | 89 | 3.5 | 6.1 | 0.00 | 0.00 | 0.00 | 52 | 1029.1 |
| 20260508124015 | 63 | 99 | 6.1 | 6.1 | 0.00 | 0.00 | 0.00 | 52 | 1029.1 |
| 20260508123514 | 63 | 94 | 4.3 | 5.2 | 0.00 | 0.00 | 0.00 | 52 | 1028.8 |
| 20260508123010 | 63 | 92 | 4.3 | 7.0 | 0.00 | 0.00 | 0.00 | 52 | 1029.0 |
| 20260508122507 | 63 | 87 | 3.5 | 5.2 | 0.00 | 0.00 | 0.00 | 52 | 1029.0 |
| 20260508122004 | 63 | 89 | 6.1 | 6.1 | 0.00 | 0.00 | 0.00 | 52 | 1029.0 |
| 20260508121502 | 63 | 85 | 5.2 | 6.1 | 0.00 | 0.00 | 0.00 | 53 | 1028.8 |
| 20260508120959 | 63 | 91 | 3.5 | 5.2 | 0.00 | 0.00 | 0.00 | 52 | 1028.9 |
| 20260508120457 | 63 | 100 | 4.3 | 7.0 | 0.00 | 0.00 | 0.00 | 52 | 1029.1 |
| 20260508115955 | 64 | 101 | 4.3 | 6.1 | 0.00 | 0.00 | 0.00 | 51 | 1029.0 |
| 20260508115452 | 64 | 93 | 6.1 | 7.0 | 0.00 | 0.00 | 0.00 | 50 | 1029.0 |
| 20260508114948 | 64 | 85 | 6.1 | 7.0 | 0.00 | 0.00 | 0.00 | 51 | 1029.0 |
| 20260508114446 | 64 | 95 | 5.2 | 6.1 | 0.00 | 0.00 | 0.00 | 51 | 1029.0 |
| 20260508113942 | 64 | 84 | 2.6 | 6.1 | 0.00 | 0.00 | 0.00 | 51 | 1029.0 |
| 20260508113440 | 64 | 100 | 3.5 | 6.1 | 0.00 | 0.00 | 0.00 | 52 | 1028.9 |
| 20260508112937 | 64 | 96 | 4.3 | 6.1 | 0.00 | 0.00 | 0.00 | 52 | 1029.0 |
| 20260508112433 | 64 | 109 | 4.3 | 5.2 | 0.00 | 0.00 | 0.00 | 51 | 1028.9 |
| 20260508111930 | 65 | 103 | 3.5 | 4.3 | 0.00 | 0.00 | 0.00 | 51 | 1029.0 |
| 20260508111427 | 65 | 105 | 3.5 | 4.3 | 0.00 | 0.00 | 0.00 | 50 | 1029.0 |
| 20260508110924 | 65 | 101 | 3.5 | 5.2 | 0.00 | 0.00 | 0.00 | 50 | 1028.9 |
| 20260508110422 | 65 | 101 | 3.5 | 7.0 | 0.00 | 0.00 | 0.00 | 50 | 1029.0 |
| 20260508105921 | 65 | 104 | 4.3 | 6.1 | 0.00 | 0.00 | 0.00 | 50 | 1029.0 |
| 20260508105418 | 65 | 100 | 3.5 | 6.1 | 0.00 | 0.00 | 0.00 | 50 | 1029.0 |
| 20260508104915 | 66 | 92 | 5.2 | 6.1 | 0.00 | 0.00 | 0.00 | 50 | 1029.1 |
| 20260508104413 | 66 | 103 | 4.3 | 7.0 | 0.00 | 0.00 | 0.00 | 49 | 1028.9 |
| 20260508103909 | 66 | 99 | 3.5 | 5.2 | 0.00 | 0.00 | 0.00 | 49 | 1028.9 |
| 20260508103406 | 66 | 104 | 5.2 | 7.0 | 0.00 | 0.00 | 0.00 | 49 | 1028.9 |
| 20260508102904 | 66 | 108 | 3.5 | 7.0 | 0.00 | 0.00 | 0.00 | 48 | 1028.8 |
| 20260508102402 | 66 | 94 | 3.5 | 6.1 | 0.00 | 0.00 | 0.00 | 48 | 1028.8 |
| 20260508101859 | 67 | 94 | 5.2 | 7.0 | 0.00 | 0.00 | 0.00 | 48 | 1028.8 |
| 20260508101356 | 67 | 83 | 4.3 | 8.7 | 0.00 | 0.00 | 0.00 | 47 | 1028.7 |
| 20260508100853 | 67 | 96 | 5.2 | 7.0 | 0.00 | 0.00 | 0.00 | 47 | 1028.8 |
| 20260508100352 | 68 | 91 | 3.5 | 6.1 | 0.00 | 0.00 | 0.00 | 46 | 1028.9 |
| 20260508095847 | 68 | 88 | 4.3 | 7.8 | 0.00 | 0.00 | 0.00 | 46 | 1028.6 |
| 20260508095345 | 68 | 97 | 4.3 | 7.0 | 0.00 | 0.00 | 0.00 | 46 | 1028.6 |
| 20260508094842 | 69 | 81 | 5.2 | 8.7 | 0.00 | 0.00 | 0.00 | 45 | 1028.6 |
| 20260508094339 | 69 | 95 | 2.6 | 7.0 | 0.00 | 0.00 | 0.00 | 46 | 1028.5 |
| 20260508093836 | 69 | 101 | 3.5 | 7.8 | 0.00 | 0.00 | 0.00 | 45 | 1028.7 |
| 20260508093333 | 70 | 85 | 4.3 | 7.0 | 0.00 | 0.00 | 0.00 | 45 | 1028.7 |
| 20260508092831 | 70 | 82 | 4.3 | 7.8 | 0.00 | 0.00 | 0.00 | 44 | 1028.6 |
| 20260508092328 | 71 | 86 | 5.2 | 7.8 | 0.00 | 0.00 | 0.00 | 43 | 1028.7 |
| 20260508091826 | 71 | 91 | 7.8 | 8.7 | 0.00 | 0.00 | 0.00 | 42 | 1028.4 |
| 20260508091322 | 71 | 81 | 7.0 | 13.0 | 0.00 | 0.00 | 0.00 | 41 | 1028.4 |
| 20260508090820 | 72 | 87 | 7.8 | 11.3 | 0.00 | 0.00 | 0.00 | 41 | 1028.5 |
| 20260508090319 | 72 | 86 | 6.1 | 11.3 | 0.00 | 0.00 | 0.00 | 41 | 1028.3 |
| 20260508085814 | 72 | 86 | 4.3 | 8.7 | 0.00 | 0.00 | 0.00 | 42 | 1028.3 |
| 20260508085311 | 73 | 96 | 7.8 | 9.6 | 0.00 | 0.00 | 0.00 | 41 | 1028.1 |
| 20260508084808 | 73 | 92 | 6.1 | 12.2 | 0.00 | 0.00 | 0.00 | 41 | 1028.2 |
| 20260508084305 | 73 | 73 | 4.3 | 8.7 | 0.00 | 0.00 | 0.00 | 41 | 1028.2 |
| 20260508083802 | 73 | 86 | 7.0 | 14.8 | 0.00 | 0.00 | 0.00 | 40 | 1028.2 |
| 20260508083259 | 73 | 91 | 11.3 | 13.0 | 0.00 | 0.00 | 0.00 | 40 | 1028.3 |
| 20260508082759 | 73 | 88 | 10.4 | 13.9 | 0.00 | 0.00 | 0.00 | 40 | 1028.3 |
| 20260508082257 | 74 | 51 | 7.8 | 8.7 | 0.00 | 0.00 | 0.00 | 41 | 1028.2 |
| 20260508081754 | 73 | 96 | 6.1 | 9.6 | 0.00 | 0.00 | 0.00 | 41 | 1028.1 |
| 20260508081251 | 73 | 78 | 8.7 | 14.8 | 0.00 | 0.00 | 0.00 | 40 | 1028.2 |
| 20260508080748 | 73 | 70 | 11.3 | 13.0 | 0.00 | 0.00 | 0.00 | 40 | 1028.3 |
| 20260508080246 | 74 | 85 | 11.3 | 13.9 | 0.00 | 0.00 | 0.00 | 40 | 1028.2 |
| 20260508075742 | 73 | 86 | 4.3 | 12.2 | 0.00 | 0.00 | 0.00 | 40 | 1028.1 |
| 20260508075239 | 74 | 86 | 7.0 | 12.2 | 0.00 | 0.00 | 0.00 | 39 | 1028.3 |
| 20260508074737 | 73 | 86 | 7.8 | 13.0 | 0.00 | 0.00 | 0.00 | 40 | 1028.3 |
| 20260508074234 | 73 | 75 | 5.2 | 14.8 | 0.00 | 0.00 | 0.00 | 40 | 1028.2 |
| 20260508073731 | 73 | 81 | 7.8 | 13.0 | 0.00 | 0.00 | 0.00 | 40 | 1028.3 |
| 20260508073229 | 74 | 89 | 7.8 | 13.0 | 0.00 | 0.00 | 0.00 | 40 | 1028.2 |
| 20260508072725 | 73 | 99 | 7.8 | 13.0 | 0.00 | 0.00 | 0.00 | 40 | 1028.2 |
| 20260508072222 | 74 | 95 | 7.0 | 13.0 | 0.00 | 0.00 | 0.00 | 40 | 1028.4 |
| 20260508071719 | 74 | 80 | 10.4 | 12.2 | 0.00 | 0.00 | 0.00 | 40 | 1028.2 |
| 20260508071217 | 74 | 84 | 8.7 | 13.9 | 0.00 | 0.00 | 0.00 | 40 | 1028.2 |
| 20260508070714 | 74 | 62 | 9.6 | 14.8 | 0.00 | 0.00 | 0.00 | 40 | 1028.4 |
| 20260508070213 | 74 | 49 | 13.9 | 16.5 | 0.00 | 0.00 | 0.00 | 39 | 1028.3 |
| 20260508065710 | 74 | 56 | 11.3 | 15.6 | 0.00 | 0.00 | 0.00 | 40 | 1028.3 |
| 20260508065208 | 73 | 109 | 9.6 | 15.6 | 0.00 | 0.00 | 0.00 | 40 | 1028.3 |
| 20260508064705 | 74 | 95 | 12.2 | 16.5 | 0.00 | 0.00 | 0.00 | 40 | 1028.3 |
| 20260508064203 | 74 | 84 | 11.3 | 12.2 | 0.00 | 0.00 | 0.00 | 41 | 1028.3 |
| 20260508063700 | 73 | 97 | 10.4 | 17.4 | 0.00 | 0.00 | 0.00 | 42 | 1028.3 |
| 20260508063158 | 73 | 98 | 4.3 | 14.8 | 0.00 | 0.00 | 0.00 | 41 | 1028.4 |
| 20260508062655 | 73 | 95 | 7.0 | 13.0 | 0.00 | 0.00 | 0.00 | 41 | 1028.6 |
| 20260508062152 | 74 | 70 | 7.8 | 13.9 | 0.00 | 0.00 | 0.00 | 42 | 1028.4 |
| 20260508061649 | 73 | 63 | 1.7 | 8.7 | 0.00 | 0.00 | 0.00 | 45 | 1028.4 |
| 20260508061147 | 74 | 100 | 5.2 | 7.0 | 0.00 | 0.00 | 0.00 | 44 | 1028.5 |
| 20260508060643 | 73 | 96 | 9.6 | 12.2 | 0.00 | 0.00 | 0.00 | 44 | 1028.5 |
| 20260508060141 | 73 | 95 | 7.0 | 13.9 | 0.00 | 0.00 | 0.00 | 44 | 1028.8 |
| 20260508055636 | 73 | 123 | 7.8 | 12.2 | 0.00 | 0.00 | 0.00 | 44 | 1028.6 |
| 20260508055133 | 73 | 86 | 4.3 | 9.6 | 0.00 | 0.00 | 0.00 | 43 | 1028.9 |
| 20260508054629 | 73 | 83 | 7.0 | 13.9 | 0.00 | 0.00 | 0.00 | 44 | 1028.9 |
| 20260508054127 | 73 | 91 | 7.0 | 11.3 | 0.00 | 0.00 | 0.00 | 44 | 1028.9 |
| 20260508053624 | 73 | 60 | 8.7 | 10.4 | 0.00 | 0.00 | 0.00 | 44 | 1029.1 |
| 20260508053122 | 73 | 38 | 13.0 | 13.0 | 0.00 | 0.00 | 0.00 | 43 | 1029.1 |
| 20260508052619 | 73 | 46 | 8.7 | 13.0 | 0.00 | 0.00 | 0.00 | 44 | 1029.2 |
| 20260508052116 | 73 | 67 | 3.5 | 11.3 | 0.00 | 0.00 | 0.00 | 44 | 1029.2 |
| 20260508051612 | 72 | 79 | 6.1 | 8.7 | 0.00 | 0.00 | 0.00 | 45 | 1029.3 |
| 20260508051107 | 73 | 74 | 4.3 | 12.2 | 0.00 | 0.00 | 0.00 | 43 | 1029.4 |
| 20260508050604 | 72 | 29 | 2.6 | 9.6 | 0.00 | 0.00 | 0.00 | 45 | 1029.4 |
| 20260508045557 | 72 | 41 | 10.4 | 13.0 | 0.00 | 0.00 | 0.00 | 45 | 1029.5 |
| 20260508045055 | 72 | 85 | 4.3 | 11.3 | 0.00 | 0.00 | 0.00 | 45 | 1029.6 |
| 20260508044552 | 71 | 93 | 10.4 | 15.6 | 0.00 | 0.00 | 0.00 | 46 | 1029.5 |
| 20260508044048 | 71 | 66 | 7.8 | 13.0 | 0.00 | 0.00 | 0.00 | 45 | 1029.5 |
| 20260508043545 | 71 | 68 | 6.1 | 11.3 | 0.00 | 0.00 | 0.00 | 47 | 1029.9 |
| 20260508043043 | 71 | 31 | 7.0 | 15.6 | 0.00 | 0.00 | 0.00 | 47 | 1030.0 |
| 20260508042539 | 71 | 58 | 11.3 | 14.8 | 0.00 | 0.00 | 0.00 | 46 | 1030.1 |
| 20260508042037 | 71 | 58 | 9.6 | 16.5 | 0.00 | 0.00 | 0.00 | 47 | 1030.2 |
| 20260508041533 | 70 | 48 | 12.2 | 13.0 | 0.00 | 0.00 | 0.00 | 49 | 1030.3 |
| 20260508041029 | 70 | 31 | 8.7 | 16.5 | 0.00 | 0.00 | 0.00 | 49 | 1030.5 |
| 20260508040526 | 70 | 46 | 9.6 | 17.4 | 0.00 | 0.00 | 0.00 | 48 | 1030.4 |
| 20260508040024 | 70 | 81 | 12.2 | 15.6 | 0.00 | 0.00 | 0.00 | 48 | 1030.5 |
| 20260508035520 | 70 | 43 | 9.6 | 14.8 | 0.00 | 0.00 | 0.00 | 49 | 1030.6 |
| 20260508035018 | 70 | 37 | 13.9 | 14.8 | 0.00 | 0.00 | 0.00 | 49 | 1030.7 |
| 20260508034515 | 70 | 86 | 8.7 | 14.8 | 0.00 | 0.00 | 0.00 | 48 | 1031.0 |
| 20260508034012 | 70 | 38 | 16.5 | 18.2 | 0.00 | 0.00 | 0.00 | 49 | 1030.8 |
| 20260508033509 | 69 | 58 | 12.2 | 17.4 | 0.00 | 0.00 | 0.00 | 48 | 1031.0 |
| 20260508033007 | 70 | 24 | 10.4 | 18.2 | 0.00 | 0.00 | 0.00 | 49 | 1031.2 |
| 20260508032504 | 69 | 40 | 11.3 | 16.5 | 0.00 | 0.00 | 0.00 | 50 | 1031.2 |
| 20260508032001 | 69 | 46 | 14.8 | 17.4 | 0.00 | 0.00 | 0.00 | 49 | 1031.4 |
| 20260508031459 | 69 | 32 | 13.0 | 17.4 | 0.00 | 0.00 | 0.00 | 50 | 1031.3 |
| 20260508030953 | 69 | 40 | 10.4 | 17.4 | 0.00 | 0.00 | 0.00 | 50 | 1031.4 |
| 20260508030451 | 69 | 34 | 9.6 | 13.0 | 0.00 | 0.00 | 0.00 | 52 | 1031.5 |
| 20260508025948 | 69 | 59 | 7.8 | 14.8 | 0.00 | 0.00 | 0.00 | 51 | 1031.4 |
| 20260508025444 | 68 | 80 | 8.7 | 14.8 | 0.00 | 0.00 | 0.00 | 51 | 1031.5 |
| 20260508024942 | 68 | 60 | 13.0 | 19.1 | 0.00 | 0.00 | 0.00 | 52 | 1031.7 |